一网星座-0349星 (ONEWEB-0349 )

导读

ONEWEB-0349是英国OneWeb星座的低轨通信卫星,于2021年10月14日发射入轨,隶属于一网全球互联网卫星项目。该卫星运行于约1200公里高度的近极LEO轨道,采用霍尔电推完成轨道提升,设计寿命约7年,单星可提供高速宽带吞吐量,依托Ku频段载荷为全球用户提供互联网接入服务,是OneWeb完成全球组网、填补偏远地区网络覆盖的重要组成卫星。

Basic Information
目录编号:
49281
目录名称:
ONEWEB-0349
国际标识:
2021-090C
轨道中心:
EARTH
卫星名称:
一网星座-0349星
卫星全名:
一网星座-0349星 (ONEWEB-0349 )
卫星状态:
在轨 (已飞行1794 天)
发射日期:
2021-10-14 UTC
国别 :
英国 (GB)
星等 :
--
This satellite is enrolled in the Space Conjunction Data Service (SCDS) and the current flight risk assessment level is: No High Risk
Orbit Information
数据来源 国际轨道数据 AOE轨道数据
星历时间 2026-09-11T20:21:35+0800
18小时前
查看轨道信息
2026-09-06T22:00:00+0800
5天前
查看轨道信息
半长轴 7559.905km 7559.919km
偏心率 0.0001979 0.0001652
轨道倾角 87.913° 87.915°
近地点辐角 90.224° 83.974°
升交点赤经 257.221° 258.206°
平近点角 269.912° 240.686°
近地点 1180.271km 1180.533km
远地点 1183.265km 1183.031km
周期 109.027分钟 109.027分钟
每日圈数 13.207733 13.207697
Detailed Information
平衡模式:
三轴稳定
覆盖范围:
全球
运营商:
一网卫星公司
运营商所在国:
英国
制造商(研发单位):
一网卫星公司
制造商所在国:
英国
使用方式:
暂无
Satellite Introduction
OneWeb卫星网络由648颗重约125公斤的微型卫星组成,运行在1200公里的轨道上。 每颗卫星都能够提供至少每秒8千兆位的吞吐量,以使用其高吞吐量的Ku频段有效载荷为家庭和移动平台提供互联网接入。该卫星仍在工作。
2D Orbit Map
3D Orbit Map
Orbit Altitude Analysis Chart
Orbit Inclination Analysis Chart
Orbit Comprehensive Analysis Chart
View Comprehensive Chart
Miss Distance Evolution Trend with All Objects
Collision Probability Evolution Trend with All Objects